Date String (YYYY-MM-DD hh:mm:ss) UTC,Instrument flags,absolute air pressure of the measurement (hPa),sample flow rate (lpm),inlet stack bypass flow (lpm),air temperature of the measurement (°C),ambient temperature measured by the external sensor (°C),aerosol sample conditioner tube jacket temperature (°C),OPC LED temperature (°C),internal box temperature (°C),relative humidity of the measurement (%),span deviation,mass concentration of particles derived from Lorenz-Mie calculation of OPC scattering (μg/m³),mass concentration of particles derived from Lorenz-Mie calculation of OPC scattering (μg/m³),mass concentration of particles derived from Lorenz-Mie calculation of OPC scattering (μg/m³)
DateTimeUTC,F1_M11,P_M11,Q1_M11,Q2_M11,T1_M11,T2_M11,T3_M11,T4_M11,T5_M11,U1_M11,ZSPAN_M11,X0_M11,X2_M11,X1_M11
2024-01-19 10:00:00,SystemResetWarning,0836.0,5.00,000.00,018.9,018.2,000.0,027.3,020.0,9.6,0000.0,0010.48,0005.68,0005.06
2024-01-19 10:01:00,SystemResetWarning,0835.9,5.00,000.00,018.9,018.0,000.0,027.3,020.0,9.6,0000.0,0010.54,0005.72,0005.10
2024-01-19 10:02:00,SystemResetWarning,0835.9,5.00,000.00,018.9,017.8,000.0,027.3,020.0,9.6,0000.0,0010.76,0005.78,0005.15
2024-01-19 10:03:00,SystemResetWarning,0835.8,5.00,000.00,018.8,017.6,000.0,027.3,020.0,9.6,0000.0,0010.72,0005.86,0005.19
2024-01-19 10:04:00,SystemResetWarning,0835.9,5.00,000.00,018.8,017.5,000.0,027.3,020.0,9.6,0000.0,0010.89,0005.91,0005.23
2024-01-19 10:05:00,SystemResetWarning,0835.9,5.02,000.00,018.9,017.7,000.0,027.3,020.3,9.6,0000.0,0012.55,0005.94,0005.25
2024-01-19 10:06:00,SystemResetWarning,0835.9,4.99,000.00,019.0,018.5,000.0,027.2,020.7,9.5,0000.0,0013.01,0005.95,0005.27
2024-01-19 10:07:00,SystemResetWarning,0835.9,5.00,000.00,019.1,019.0,000.0,027.2,020.6,9.5,0000.0,0013.26,0005.97,0005.28
2024-01-19 10:08:00,SystemResetWarning,0835.8,5.00,000.00,019.0,018.8,000.0,027.2,020.1,9.5,0000.0,0013.42,0006.02,0005.30
2024-01-19 10:09:00,SystemResetWarning,0835.8,4.99,000.00,019.0,018.5,000.0,027.2,020.0,9.5,0000.0,0013.61,0006.03,0005.33
2024-01-19 10:10:00,SystemResetWarning,0835.9,5.01,000.00,018.9,018.3,000.0,027.3,020.0,9.6,0000.0,0013.77,0006.07,0005.35
2024-01-19 10:11:00,SystemResetWarning,0835.8,5.00,000.00,018.9,018.0,000.0,027.3,020.0,9.6,0000.0,0013.81,0006.09,0005.37
2024-01-19 10:12:00,SystemResetWarning,0835.9,5.00,000.00,018.9,017.8,000.0,027.3,020.0,9.6,0000.0,0014.02,0006.12,0005.38
2024-01-19 10:13:00,SystemResetWarning,0835.9,5.00,000.00,018.9,017.6,000.0,027.3,020.0,9.6,0000.0,0013.55,0006.12,0005.39
2024-01-19 10:14:00,SystemResetWarning,0835.9,4.99,000.00,018.9,017.5,000.0,027.3,020.0,9.6,0000.0,0013.50,0006.10,0005.39
2024-01-19 10:15:00,SystemResetWarning,0835.9,5.02,000.00,018.9,017.7,000.0,027.3,020.2,9.6,0000.0,0013.19,0006.10,0005.40
2024-01-19 10:16:00,SystemResetWarning,0835.9,5.01,000.00,019.0,018.5,000.0,027.2,020.7,9.5,0000.0,0011.98,0006.09,0005.40
2024-01-19 10:17:00,SystemResetWarning,0835.9,5.00,000.00,019.1,019.0,000.0,027.2,020.7,9.5,0000.0,0011.32,0006.09,0005.41
2024-01-19 10:18:00,SystemResetWarning,0835.8,4.99,000.00,019.0,018.9,000.0,027.2,020.2,9.6,0000.0,0010.93,0006.08,0005.42
2024-01-19 10:19:00,SystemResetWarning,0835.8,4.99,000.00,019.0,018.6,000.0,027.2,020.0,9.6,0000.0,0010.85,0006.08,0005.43
2024-01-19 10:20:00,SystemResetWarning,0835.8,5.01,000.00,018.9,018.3,000.0,027.3,020.0,9.7,0000.0,0010.72,0006.08,0005.44
2024-01-19 10:21:00,SystemResetWarning,0835.8,5.01,000.00,018.9,018.1,000.0,027.3,020.0,9.7,0000.0,0010.48,0006.09,0005.45
2024-01-19 10:22:00,SystemResetWarning,0835.8,5.00,000.00,018.9,018.0,000.0,027.3,020.0,9.7,0000.0,0010.47,0006.07,0005.45
2024-01-19 10:23:00,SystemResetWarning,0835.8,4.99,000.00,018.9,017.8,000.0,027.3,020.0,9.7,0000.0,0010.40,0006.09,0005.46
2024-01-19 10:24:00,SystemResetWarning,0835.8,4.98,000.00,018.8,017.7,000.0,027.3,020.0,9.7,0000.0,0010.44,0006.15,0005.49
2024-01-19 10:25:00,SystemResetWarning,0835.8,4.99,000.00,018.8,017.5,000.0,027.3,020.0,9.7,0000.0,0010.66,0006.19,0005.51
2024-01-19 10:26:00,SystemResetWarning,0835.8,5.01,000.00,018.8,017.5,000.0,027.3,020.0,9.8,0000.0,0010.95,0006.17,0005.52
2024-01-19 10:27:00,SystemResetWarning,0835.8,5.02,000.00,018.9,017.8,000.0,027.3,020.3,9.7,0000.0,0011.06,0006.19,0005.53
2024-01-19 10:28:00,SystemResetWarning,0835.8,4.99,000.00,019.0,018.7,000.0,027.2,020.8,9.7,0000.0,0011.31,0006.19,0005.54
2024-01-19 10:29:00,SystemResetWarning,0835.8,4.99,000.00,019.1,019.1,000.0,027.2,020.6,9.7,0000.0,0011.42,0006.21,0005.56
2024-01-19 10:30:00,SystemResetWarning,0835.7,5.00,000.00,019.0,018.9,000.0,027.2,020.1,9.7,0000.0,0011.52,0006.21,0005.58
2024-01-19 10:31:00,SystemResetWarning,0835.7,5.01,000.00,019.0,018.6,000.0,027.2,020.0,9.8,0000.0,0011.65,0006.24,0005.59
2024-01-19 10:32:00,SystemResetWarning,0835.6,5.00,000.00,018.9,018.3,000.0,027.3,020.0,9.9,0000.0,0011.79,0006.28,0005.62
2024-01-19 10:33:00,SystemResetWarning,0835.6,4.99,000.00,018.9,018.1,000.0,027.3,020.0,9.9,0000.0,0011.88,0006.32,0005.64
2024-01-19 10:34:00,SystemResetWarning,0835.8,4.99,000.00,018.9,017.9,000.0,027.3,020.0,10.0,0000.0,0011.81,0006.31,0005.65
2024-01-19 10:35:00,SystemResetWarning,0835.8,5.00,000.00,018.9,017.7,000.0,027.3,020.0,10.0,0000.0,0011.66,0006.28,0005.65
2024-01-19 10:36:00,SystemResetWarning,0835.8,5.01,000.00,018.8,017.6,000.0,027.3,020.0,10.1,0000.0,0011.32,0006.23,0005.64
2024-01-19 10:37:00,SystemResetWarning,0835.7,5.01,000.00,018.8,017.5,000.0,027.3,020.1,10.1,0000.0,0011.04,0006.24,0005.65
2024-01-19 10:38:00,SystemResetWarning,0835.6,5.00,000.00,018.9,018.1,000.0,027.3,020.5,10.1,0000.0,0010.54,0006.25,0005.66
2024-01-19 10:39:00,SystemResetWarning,0835.6,5.00,000.00,019.0,018.8,000.0,027.2,020.8,10.0,0000.0,0010.24,0006.25,0005.67
2024-01-19 10:40:00,SystemResetWarning,0835.6,4.99,000.00,019.1,018.9,000.0,027.2,020.3,10.0,0000.0,0010.71,0006.26,0005.68
2024-01-19 10:41:00,SystemResetWarning,0835.6,4.99,000.00,019.0,018.6,000.0,027.2,020.0,10.0,0000.0,0010.60,0006.29,0005.69
2024-01-19 10:42:00,SystemResetWarning,0835.6,5.00,000.00,018.9,018.3,000.0,027.3,020.0,10.1,0000.0,0010.53,0006.34,0005.72
2024-01-19 10:43:00,SystemResetWarning,0835.7,5.00,000.00,018.9,018.1,000.0,027.3,020.0,10.1,0000.0,0010.48,0006.37,0005.76
2024-01-19 10:44:00,SystemResetWarning,0835.7,5.01,000.00,018.9,017.8,000.0,027.3,020.0,10.2,0000.0,0010.36,0006.39,0005.79
2024-01-19 10:45:00,SystemResetWarning,0835.7,5.00,000.00,018.9,017.6,000.0,027.3,020.0,10.2,0000.0,0010.48,0006.46,0005.84
2024-01-19 10:46:00,SystemResetWarning,0835.6,5.00,000.00,018.8,017.4,000.0,027.3,020.0,10.3,0000.0,0010.59,0006.50,0005.87
2024-01-19 10:47:00,SystemResetWarning,0835.6,5.00,000.00,018.9,017.6,000.0,027.3,020.2,10.3,0000.0,0010.70,0006.57,0005.93
2024-01-19 10:48:00,SystemResetWarning,0835.7,5.01,000.00,019.0,018.3,000.0,027.2,020.6,10.3,0000.0,0011.31,0006.66,0005.96
2024-01-19 10:49:00,SystemResetWarning,0835.6,4.99,000.00,019.1,018.8,000.0,027.2,020.6,10.3,0000.0,0011.43,0006.71,0005.98
2024-01-19 10:50:00,SystemResetWarning,0835.6,4.99,000.00,019.0,018.6,000.0,027.2,020.0,10.3,0000.0,0011.58,0006.81,0006.04
2024-01-19 10:51:00,SystemResetWarning,0835.6,5.00,000.00,018.9,018.3,000.0,027.3,020.0,10.4,0000.0,0012.21,0006.96,0006.16
2024-01-19 10:52:00,SystemResetWarning,0835.6,5.00,000.00,018.9,018.0,000.0,027.3,020.0,10.4,0001.0,0013.15,0007.10,0006.26
2024-01-19 10:53:00,SystemResetWarning,0835.5,5.01,000.00,018.9,017.8,000.0,027.3,020.0,10.5,0001.5,0013.50,0007.13,0006.32
2024-01-19 10:54:00,SystemResetWarning,0835.5,5.00,000.00,018.9,017.6,000.0,027.3,020.0,10.5,0000.9,0013.56,0007.20,0006.39
2024-01-19 10:55:00,SystemResetWarning,0835.5,5.01,000.00,018.9,018.1,000.0,027.2,020.5,10.5,0000.8,0014.27,0007.27,0006.47
2024-01-19 10:56:00,SystemResetWarning,0835.5,5.01,000.00,019.0,018.8,000.0,027.2,020.8,10.5,0001.2,0014.47,0007.37,0006.60
2024-01-19 10:57:00,SystemResetWarning,0835.5,4.98,000.00,019.1,018.9,000.0,027.2,020.3,10.5,0001.4,0014.94,0007.56,0006.77
2024-01-19 10:58:00,SystemResetWarning,0835.5,5.00,000.00,019.0,018.5,000.0,027.2,020.0,10.6,0001.7,0015.31,0007.76,0006.94
2024-01-19 10:59:00,SystemResetWarning,0835.5,5.00,000.00,018.9,018.2,000.0,027.3,020.0,10.6,0001.5,0015.01,0007.93,0007.13
